YV5KXE-4 Weather Reports


Display with metric or nautical units.
time (UTC)temp
F
wind
direction
speed
MPH
gust
MPH
rain 1hr
in
rain 24hr
in
rain mn
in
humidity
%
barometer
mb
20260507043006 72 89 2.0 5.0 0.00 0.00 0.00 86 1017.2
20260507042504 72 161 2.0 6.0 0.00 0.00 0.00 86 1017.2
20260507042003 72 106 1.0 3.0 0.00 0.00 0.00 87 1017.2
20260507041504 72 106 5.0 9.0 0.00 0.00 0.00 87 1017.1
20260507041004 72 144 3.0 9.0 0.00 0.00 0.00 87 1017.1
20260507040504 72 123 5.0 13.0 0.00 0.00 0.00 87 1017.2
20260507040006 72 139 3.0 10.0 0.00 0.00 0.00 87 1017.2
20260507035503 72 145 4.0 12.0 0.00 0.00 0.00 87 1017.3
20260507035004 72 152 6.0 10.0 0.00 0.00 0.00 87 1017.2
20260507034503 72 129 5.0 10.0 0.00 0.00 0.00 88 1017.3
20260507034003 72 147 5.0 10.0 0.00 0.00 0.00 88 1017.3
20260507033503 72 132 3.0 10.0 0.00 0.00 0.00 89 1017.3
20260507033006 72 91 4.0 8.0 0.00 0.00 0.00 89 1017.3
20260507032504 72 135 5.0 12.0 0.00 0.00 0.00 89 1017.3
20260507032004 73 119 4.0 10.0 0.00 0.00 0.00 89 1017.3
20260507031504 73 120 2.0 7.0 0.00 0.00 0.00 89 1017.3
20260507031003 72 105 3.0 8.0 0.00 0.00 0.00 89 1017.3
20260507030504 72 123 3.0 9.0 0.00 0.00 0.00 89 1017.3
20260507030006 73 91 2.0 9.0 0.00 0.00 0.00 88 1017.3
20260507025503 73 144 3.0 6.0 0.00 0.00 0.00 88 1017.3
20260507025003 73 95 2.0 6.0 0.00 0.00 0.00 88 1017.3
20260507024504 73 142 3.0 10.0 0.00 0.00 0.00 88 1017.3
20260507024004 73 131 2.0 8.0 0.00 0.00 0.00 88 1017.3
20260507023504 73 137 0.0 8.0 0.00 0.00 0.00 88 1017.2
20260507023006 73 130 3.0 10.0 0.00 0.00 0.00 88 1017.2
20260507022504 73 93 2.0 12.0 0.00 0.00 0.00 87 1017.1
20260507022004 73 153 5.0 9.0 0.00 0.00 0.00 87 1017.0
20260507021504 73 138 4.0 10.0 0.00 0.00 0.00 87 1017.1
20260507021004 73 128 4.0 10.0 0.00 0.00 0.00 87 1017.1
20260507020503 73 137 2.0 12.0 0.00 0.00 0.00 87 1017.0
20260507020006 73 117 3.0 12.0 0.00 0.00 0.00 86 1017.0
20260507015503 74 134 3.0 10.0 0.00 0.00 0.00 86 1016.8
20260507015004 74 118 5.0 14.0 0.00 0.00 0.00 85 1016.8
20260507014503 74 120 5.0 12.0 0.00 0.00 0.00 85 1016.8
20260507014004 74 147 5.0 10.0 0.00 0.00 0.00 85 1016.7
20260507013504 74 160 3.0 8.0 0.00 0.00 0.00 85 1016.6
20260507013006 74 144 6.0 12.0 0.00 0.00 0.00 84 1016.6
20260507012504 74 146 3.0 10.0 0.00 0.00 0.00 84 1016.5
20260507012004 74 150 3.0 12.0 0.00 0.00 0.00 83 1016.5
20260507011503 75 136 6.0 10.0 0.00 0.00 0.00 83 1016.5
20260507011004 75 149 3.0 7.0 0.00 0.00 0.00 82 1016.4
20260507010504 75 110 1.0 7.0 0.00 0.00 0.00 82 1016.3
20260507010006 75 110 4.0 9.0 0.00 0.00 0.00 82 1016.2
20260507005504 75 148 5.0 12.0 0.00 0.00 0.00 81 1016.2
20260507005003 76 136 4.0 9.0 0.00 0.00 0.00 80 1016.0
20260507004504 76 141 3.0 8.0 0.00 0.00 0.00 79 1016.0
20260507004004 76 130 3.0 10.0 0.00 0.00 0.00 78 1015.9
20260507003504 76 160 2.0 6.0 0.00 0.00 0.00 78 1015.9
20260507003006 76 151 3.0 12.0 0.00 0.00 0.00 78 1015.8
20260507002504 76 128 3.0 9.0 0.00 0.00 0.00 77 1015.9
20260507002003 76 106 4.0 8.0 0.00 0.00 0.00 76 1015.8
20260507001503 76 137 6.0 12.0 0.00 0.00 0.00 76 1015.7
20260507001004 76 148 4.0 8.0 0.00 0.00 0.00 75 1015.5
20260507000504 77 146 5.0 10.0 0.00 0.00 0.00 75 1015.5
20260507000006 77 156 5.0 10.0 0.00 0.00 0.00 75 1015.4
20260506235504 77 166 5.0 7.0 0.00 0.00 0.00 74 1015.4
20260506235004 77 113 6.0 12.0 0.00 0.00 0.00 73 1015.3
20260506234504 77 120 5.0 9.0 0.00 0.00 0.00 73 1015.2
20260506234004 78 170 2.0 12.0 0.00 0.00 0.00 73 1015.3
20260506233504 78 87 2.0 12.0 0.00 0.00 0.00 71 1015.2
20260506233006 79 91 5.0 13.0 0.00 0.00 0.00 68 1015.2
20260506232503 79 168 1.0 9.0 0.00 0.00 0.00 67 1015.0
20260506232004 79 125 4.0 8.0 0.00 0.00 0.00 65 1015.0
20260506231503 80 156 5.0 10.0 0.00 0.00 0.00 64 1014.8
20260506231004 80 137 3.0 8.0 0.00 0.00 0.00 62 1014.7
20260506230504 80 128 3.0 7.0 0.00 0.00 0.00 61 1014.7
20260506230006 80 136 5.0 10.0 0.00 0.00 0.00 59 1014.7
20260506225503 80 110 6.0 10.0 0.00 0.00 0.00 58 1014.5
20260506225003 80 105 2.0 7.0 0.00 0.00 0.00 58 1014.5
20260506224504 80 49 6.0 13.0 0.00 0.00 0.00 58 1014.4
20260506224004 81 64 5.0 12.0 0.00 0.00 0.00 57 1014.3
20260506223504 81 84 2.0 8.0 0.00 0.00 0.00 56 1014.3
20260506223006 81 154 4.0 10.0 0.00 0.00 0.00 56 1014.2
20260506222503 81 116 3.0 9.0 0.00 0.00 0.00 56 1014.1
20260506222004 81 55 3.0 8.0 0.00 0.00 0.00 56 1014.1
20260506221504 81 80 6.0 12.0 0.00 0.00 0.00 55 1014.1
20260506221003 81 93 3.0 8.0 0.00 0.00 0.00 55 1014.1
20260506220503 81 136 5.0 9.0 0.00 0.00 0.00 54 1014.0
20260506220005 81 144 5.0 12.0 0.00 0.00 0.00 54 1014.0
20260506215504 82 43 4.0 12.0 0.00 0.00 0.00 54 1014.0
20260506215004 82 113 3.0 10.0 0.00 0.00 0.00 53 1014.0
20260506214503 82 173 6.0 10.0 0.00 0.00 0.00 53 1014.0
20260506214003 82 154 5.0 9.0 0.00 0.00 0.00 53 1013.9
20260506213504 82 148 4.0 9.0 0.00 0.00 0.00 52 1013.7
20260506213006 83 186 2.0 10.0 0.00 0.00 0.00 51 1013.6
20260506212503 83 103 2.0 9.0 0.00 0.00 0.00 51 1013.7
20260506212003 83 166 3.0 8.0 0.00 0.00 0.00 50 1013.6
20260506211504 83 158 2.0 6.0 0.00 0.00 0.00 50 1013.5
20260506211004 83 47 2.0 9.0 0.00 0.00 0.00 50 1013.4
20260506210504 83 125 7.0 15.0 0.00 0.00 0.00 49 1013.4
20260506210006 84 130 5.0 13.0 0.00 0.00 0.00 48 1013.3
20260506205504 84 140 3.0 8.0 0.00 0.00 0.00 47 1013.2
20260506205003 84 131 2.0 8.0 0.00 0.00 0.00 47 1013.2
20260506204504 83 129 3.0 12.0 0.00 0.00 0.00 47 1013.1
20260506204004 83 111 5.0 12.0 0.00 0.00 0.00 48 1013.2
20260506203503 83 110 5.0 12.0 0.00 0.00 0.00 48 1013.2
20260506203006 83 150 6.0 13.0 0.00 0.00 0.00 48 1013.3
20260506202504 83 135 6.0 13.0 0.00 0.00 0.00 48 1013.3
20260506202004 84 140 3.0 13.0 0.00 0.00 0.00 47 1013.3
20260506201504 84 136 5.0 13.0 0.00 0.00 0.00 47 1013.4
20260506201004 84 150 4.0 9.0 0.00 0.00 0.00 46 1013.4
20260506200504 83 113 3.0 8.0 0.00 0.00 0.00 46 1013.4
20260506200006 83 164 7.0 12.0 0.00 0.00 0.00 47 1013.5
20260506195504 83 174 4.0 14.0 0.00 0.00 0.00 46 1013.7
20260506195004 83 145 5.0 14.0 0.00 0.00 0.00 47 1013.8
20260506194504 83 147 2.0 9.0 0.00 0.00 0.00 47 1013.7
20260506194003 83 134 6.0 13.0 0.00 0.00 0.00 48 1013.8
20260506193504 83 163 4.0 10.0 0.00 0.00 0.00 48 1013.8
20260506193006 83 127 5.0 20.0 0.00 0.00 0.00 47 1013.8
20260506192504 84 89 6.0 12.0 0.00 0.00 0.00 46 1014.0
20260506192004 85 107 3.0 9.0 0.00 0.00 0.00 44 1014.0
20260506191504 85 158 5.0 9.0 0.00 0.00 0.00 43 1014.0
20260506191003 84 143 5.0 8.0 0.00 0.00 0.00 44 1014.0
20260506190503 84 120 4.0 8.0 0.00 0.00 0.00 46 1014.1
20260506190006 83 91 6.0 14.0 0.00 0.00 0.00 47 1014.3
20260506185504 83 114 7.0 14.0 0.00 0.00 0.00 46 1014.5
20260506185004 83 128 6.0 15.0 0.00 0.00 0.00 46 1014.5
20260506184504 83 99 5.0 8.0 0.00 0.00 0.00 46 1014.5
20260506184003 82 110 1.0 8.0 0.00 0.00 0.00 48 1014.6
20260506183504 83 104 6.0 15.0 0.00 0.00 0.00 46 1014.7
20260506183006 83 79 5.0 15.0 0.00 0.00 0.00 46 1014.7
20260506182504 83 118 6.0 13.0 0.00 0.00 0.00 45 1014.8
20260506182003 83 145 6.0 12.0 0.00 0.00 0.00 44 1014.8
20260506181504 84 176 6.0 13.0 0.00 0.00 0.00 44 1014.9
20260506181003 84 172 5.0 16.0 0.00 0.00 0.00 42 1015.1
20260506180503 84 123 7.0 14.0 0.00 0.00 0.00 44 1015.2
20260506180007 83 74 3.0 10.0 0.00 0.00 0.00 45 1015.2
20260506175503 83 82 5.0 12.0 0.00 0.00 0.00 45 1015.5
20260506175004 83 168 5.0 12.0 0.00 0.00 0.00 44 1015.7
20260506174504 82 103 7.0 15.0 0.00 0.00 0.00 46 1015.7
20260506174004 83 84 9.0 15.0 0.00 0.00 0.00 46 1015.8
20260506173503 83 89 8.0 17.0 0.00 0.00 0.00 45 1015.8
20260506173006 83 156 3.0 12.0 0.00 0.00 0.00 45 1015.8
20260506172504 83 134 7.0 13.0 0.00 0.00 0.00 45 1015.9
20260506172004 83 156 5.0 13.0 0.00 0.00 0.00 45 1016.0
20260506171503 83 79 5.0 12.0 0.00 0.00 0.00 44 1016.0
20260506171004 83 136 5.0 18.0 0.00 0.00 0.00 45 1016.1
20260506170504 82 128 12.0 20.0 0.00 0.00 0.00 46 1016.2
20260506170006 82 133 6.0 12.0 0.00 0.00 0.00 47 1016.4
20260506165504 82 161 8.0 13.0 0.00 0.00 0.00 47 1016.4
20260506165003 82 166 7.0 13.0 0.00 0.00 0.00 46 1016.4
20260506164504 83 140 5.0 14.0 0.00 0.00 0.00 47 1016.6
20260506164004 82 98 2.0 9.0 0.00 0.00 0.00 50 1016.7
20260506163504 81 105 6.0 13.0 0.00 0.00 0.00 52 1016.8
20260506163006 81 71 6.0 14.0 0.00 0.00 0.00 51 1017.0
20260506162504 81 103 7.0 13.0 0.00 0.00 0.00 52 1017.0
20260506162004 81 107 9.0 17.0 0.00 0.00 0.00 52 1017.3
20260506161503 81 112 12.0 18.0 0.00 0.00 0.00 52 1017.3
20260506161004 81 99 3.0 9.0 0.00 0.00 0.00 53 1017.3
20260506160504 80 149 7.0 13.0 0.00 0.00 0.00 52 1017.4
20260506160006 80 125 7.0 12.0 0.00 0.00 0.00 52 1017.4
20260506155504 80 145 5.0 12.0 0.00 0.00 0.00 52 1017.4
20260506155004 80 183 4.0 12.0 0.00 0.00 0.00 53 1017.5
20260506154503 79 152 9.0 20.0 0.00 0.00 0.00 54 1017.6
20260506154003 80 177 6.0 10.0 0.00 0.00 0.00 52 1017.5
20260506153503 80 168 6.0 9.0 0.00 0.00 0.00 51 1017.7
20260506153006 80 120 7.0 12.0 0.00 0.00 0.00 52 1017.7
20260506152504 80 138 5.0 17.0 0.00 0.00 0.00 51 1017.9
20260506152004 80 129 7.0 16.0 0.00 0.00 0.00 51 1018.0
20260506151503 79 92 7.0 15.0 0.00 0.00 0.00 51 1018.0
20260506151004 79 126 6.0 13.0 0.00 0.00 0.00 53 1018.0
20260506150503 79 111 5.0 12.0 0.00 0.00 0.00 54 1018.0
20260506150006 79 139 3.0 13.0 0.00 0.00 0.00 55 1018.0
20260506145503 79 161 5.0 12.0 0.00 0.00 0.00 55 1018.0
20260506145004 79 120 3.0 8.0 0.00 0.00 0.00 58 1018.1
20260506144504 78 141 6.0 12.0 0.00 0.00 0.00 58 1018.1
20260506144004 78 118 5.0 14.0 0.00 0.00 0.00 60 1018.1
20260506143504 78 158 7.0 14.0 0.00 0.00 0.00 60 1018.1
20260506143006 78 153 5.0 10.0 0.00 0.00 0.00 63 1018.1
20260506142503 77 92 3.0 8.0 0.00 0.00 0.00 64 1018.3
20260506142004 77 163 4.0 9.0 0.00 0.00 0.00 66 1018.3
20260506141503 76 148 6.0 14.0 0.00 0.00 0.00 66 1018.3
20260506141003 76 136 6.0 12.0 0.00 0.00 0.00 67 1018.4
20260506140504 76 153 3.0 13.0 0.00 0.00 0.00 68 1018.4
20260506140006 76 153 5.0 13.0 0.00 0.00 0.00 70 1018.4
20260506135503 76 146 7.0 15.0 0.00 0.00 0.00 69 1018.4
20260506135003 76 102 6.0 14.0 0.00 0.00 0.00 70 1018.4
20260506134504 76 148 7.0 12.0 0.00 0.00 0.00 69 1018.4
20260506134004 76 140 6.0 15.0 0.00 0.00 0.00 70 1018.4
20260506133503 75 143 6.0 10.0 0.00 0.00 0.00 72 1018.2
20260506133006 75 134 6.0 14.0 0.00 0.00 0.00 73 1018.2
20260506132503 75 155 5.0 8.0 0.00 0.00 0.00 72 1018.2
20260506132003 74 129 3.0 9.0 0.00 0.00 0.00 74 1018.2
20260506131504 74 142 5.0 12.0 0.00 0.00 0.00 74 1018.3
20260506131004 74 102 5.0 10.0 0.00 0.00 0.00 74 1018.3
20260506130503 74 91 3.0 8.0 0.00 0.00 0.00 74 1018.3
20260506130006 74 95 7.0 14.0 0.00 0.00 0.00 75 1018.2
20260506125503 74 84 4.0 9.0 0.00 0.00 0.00 74 1018.1
20260506125004 74 60 3.0 8.0 0.00 0.00 0.00 74 1018.0
20260506124503 75 95 7.0 12.0 0.00 0.00 0.00 72 1018.0
20260506124004 75 18 2.0 12.0 0.00 0.00 0.00 73 1017.9
20260506123504 75 151 5.0 10.0 0.00 0.00 0.00 73 1017.8
20260506123006 74 117 2.0 9.0 0.00 0.00 0.00 73 1017.7
20260506122503 74 107 3.0 12.0 0.00 0.00 0.00 74 1017.7
20260506122003 73 218 3.0 8.0 0.00 0.00 0.00 75 1017.6
20260506121503 73 115 5.0 10.0 0.00 0.00 0.00 76 1017.6
20260506121004 73 116 4.0 9.0 0.00 0.00 0.00 76 1017.4
20260506120503 72 152 5.0 8.0 0.00 0.00 0.00 77 1017.4
20260506120006 72 145 2.0 10.0 0.00 0.00 0.00 77 1017.4
20260506115505 72 159 6.0 10.0 0.00 0.00 0.00 77 1017.3
20260506115004 72 118 2.0 7.0 0.00 0.00 0.00 78 1017.3
20260506114503 72 124 4.0 6.0 0.00 0.00 0.00 79 1017.3
20260506114004 71 142 5.0 10.0 0.00 0.00 0.00 80 1017.2
20260506113503 71 158 4.0 8.0 0.00 0.00 0.00 80 1017.1
20260506113006 71 142 3.0 7.0 0.00 0.00 0.00 81 1017.1
20260506112504 71 128 2.0 5.0 0.00 0.00 0.00 81 1017.2
20260506112004 70 8 1.0 3.0 0.00 0.00 0.00 82 1017.1
20260506111504 70 0 0.0 2.0 0.00 0.00 0.00 82 1017.0
20260506111004 70 0 0.0 1.0 0.00 0.00 0.00 81 1017.0
20260506110504 69 0 1.0 2.0 0.00 0.00 0.00 81 1016.9
20260506110006 69 0 0.0 2.0 0.00 0.00 0.00 82 1016.9
20260506105504 69 0 1.0 3.0 0.00 0.00 0.00 82 1016.8
20260506105004 69 0 0.0 0.0 0.00 0.00 0.00 82 1016.8
20260506104504 69 0 0.0 1.0 0.00 0.00 0.00 82 1016.8
20260506104004 69 0 0.0 0.0 0.00 0.00 0.00 82 1016.8
20260506103504 69 0 0.0 3.0 0.00 0.00 0.00 81 1016.8
20260506103006 69 0 1.0 3.0 0.00 0.00 0.00 81 1016.6
20260506102504 69 0 1.0 3.0 0.00 0.00 0.00 81 1016.6
20260506102004 69 0 2.0 3.0 0.00 0.00 0.00 81 1016.6
20260506101503 69 0 2.0 3.0 0.00 0.00 0.00 81 1016.5
20260506101004 69 0 0.0 0.0 0.00 0.00 0.00 80 1016.5
20260506100504 69 0 1.0 3.0 0.00 0.00 0.00 80 1016.6
20260506100005 69 0 1.0 2.0 0.00 0.00 0.00 81 1016.6
20260506095504 69 0 0.0 2.0 0.00 0.00 0.00 81 1016.5
20260506095003 69 0 0.0 0.0 0.00 0.00 0.00 81 1016.5
20260506094504 69 0 0.0 0.0 0.00 0.00 0.00 80 1016.5
20260506094004 69 0 0.0 2.0 0.00 0.00 0.00 80 1016.4
20260506093504 69 0 0.0 2.0 0.00 0.00 0.00 79 1016.3
20260506093006 69 0 1.0 3.0 0.00 0.00 0.00 79 1016.3
20260506092503 69 0 0.0 0.0 0.00 0.00 0.00 79 1016.3
20260506092004 69 0 0.0 3.0 0.00 0.00 0.00 78 1016.3
20260506091504 69 0 0.0 3.0 0.00 0.00 0.00 79 1016.3
20260506091004 69 0 0.0 3.0 0.00 0.00 0.00 79 1016.3
20260506090504 69 0 1.0 3.0 0.00 0.00 0.00 78 1016.3
20260506090005 69 359 1.0 3.0 0.00 0.00 0.00 79 1016.5
20260506085504 69 355 2.0 3.0 0.00 0.00 0.00 79 1016.4
20260506085004 69 19 0.0 0.0 0.00 0.00 0.00 79 1016.4
20260506084504 69 19 0.0 3.0 0.00 0.00 0.00 78 1016.3
20260506084004 69 19 1.0 2.0 0.00 0.00 0.00 78 1016.2
20260506083504 69 19 1.0 3.0 0.00 0.00 0.00 78 1016.2
20260506083006 68 19 1.0 5.0 0.00 0.00 0.00 78 1016.2
20260506082504 68 21 1.0 5.0 0.00 0.00 0.00 78 1016.1
20260506082004 69 353 3.0 5.0 0.00 0.00 0.00 79 1016.0
20260506081503 69 341 3.0 3.0 0.00 0.00 0.00 80 1016.0
20260506081003 69 338 3.0 3.0 0.00 0.00 0.00 79 1015.9
20260506080504 69 24 0.0 3.0 0.00 0.00 0.00 80 1015.9
20260506073504 69 24 1.0 3.0 0.00 0.00 0.00 79 1016.2
20260506073006 69 24 3.0 3.0 0.00 0.00 0.00 79 1016.1
20260506072503 69 24 0.0 2.0 0.00 0.00 0.00 80 1016.1
20260506072004 69 24 0.0 2.0 0.00 0.00 0.00 80 1016.2
20260506071504 69 24 2.0 3.0 0.00 0.00 0.00 79 1016.1
20260506071004 69 24 1.0 3.0 0.00 0.00 0.00 80 1016.1
20260506070504 69 24 2.0 3.0 0.00 0.00 0.00 80 1016.0
20260506062504 70 320 2.0 3.0 0.00 0.00 0.00 80 1016.1
20260506062003 70 144 0.0 2.0 0.00 0.00 0.00 80 1016.1
20260506061504 70 144 0.0 1.0 0.00 0.00 0.00 80 1016.0
20260506061004 70 144 1.0 2.0 0.00 0.00 0.00 81 1016.0
20260506060504 70 144 0.0 0.0 0.00 0.00 0.00 82 1016.0
20260506051004 70 84 2.0 6.0 0.00 0.00 0.00 84 1016.7
20260506050504 69 110 3.0 7.0 0.00 0.00 0.00 84 1016.7
20260506045003 69 134 2.0 8.0 0.00 0.00 0.00 85 1016.8
20260506044504 69 114 3.0 8.0 0.00 0.00 0.00 85 1016.9
20260506044004 69 93 4.0 7.0 0.00 0.00 0.00 84 1016.9
20260506043504 69 113 3.0 7.0 0.00 0.00 0.00 84 1017.0